Location: Alta
(39.2070°N, 120.8111°W)
Time: 03:06:28
(UTC+00:00)

ARIANE 6 FM1 Upper Stage - Visible Passes

Search period start: 09 March 2026 00:00
Search period end: 19 March 2026 00:00
Orbit: 523 x 607 km, 62.0° (Epoch: 8 March)

Date Brightness Start Highest point End Pass type
(mag) Time Alt. Az. Time Alt. Az. Time Alt. Az.
9 Mar 4.3 12:20:39 22° SSE 12:22:21 29° ESE 12:25:55 10° ENE visible
10 Mar 3.5 12:21:17 39° SSE 12:22:05 45° ESE 12:25:58 10° NE visible
11 Mar 2.7 12:21:43 70° SE 12:21:50 70° ESE 12:25:52 10° NE visible
12 Mar 2.7 12:22:00 68° N 12:22:00 68° N 12:25:39 10° NNE visible
13 Mar 3.3 12:22:09 43° NNW 12:22:09 43° NNW 12:25:21 10° NNE visible
14 Mar 3.8 12:22:11 30° NNW 12:22:11 30° NNW 12:24:56 10° NNE visible
15 Mar 4.3 12:22:08 22° NNW 12:22:08 22° NNW 12:24:25 10° N visible
16 Mar 4.7 12:22:01 16° NNW 12:22:01 16° NNW 12:23:47 10° N visible
17 Mar 5.0 12:21:49 13° NNW 12:21:49 13° NNW 12:22:55 10° N visible
